This is the latest recevied weather packets stored in our database for station/object OK2JF-6. If no packets are shown the sender has not sent any weather packets the latest 10 day(s).
| Time | Temp. | Humidity | Pressure | Rain* | Wind** | Luminosity | Snow |
|---|---|---|---|---|---|---|---|
| 1777869543 | 11.67° C | 60% | 1085.8 hPa | 0 mm | - | 55 W/m² | - |
| 1777868763 | 10.56° C | 63% | 1085.9 hPa | 0 mm | - | 42 W/m² | - |
| 1777868403 | 10.56° C | 63% | 1085.8 hPa | 0 mm | - | 31 W/m² | - |
| 1777868223 | 10.56° C | 63% | 1085.8 hPa | 0 mm | - | 29 W/m² | - |
| 1777867803 | 10° C | 63% | 1085.7 hPa | 0 mm | - | 22 W/m² | - |
| 1777867743 | 10° C | 63% | 1086.1 hPa | 0 mm | - | 21 W/m² | - |
| 1777867563 | 10° C | 63% | 1086 hPa | 0 mm | - | 17 W/m² | - |
| 1777866663 | 10° C | 62% | 1086.2 hPa | 0 mm | - | 8 W/m² | - |
| 1777866498 | 10° C | 62% | 1086 hPa | 0 mm | - | 7 W/m² | - |
| 1777866123 | 10° C | 62% | 1085.8 hPa | 0 mm | - | 5 W/m² | - |
| 1777866063 | 10° C | 62% | 1085.9 hPa | 0 mm | - | 4 W/m² | - |
| 1777866003 | 10° C | 62% | 1086 hPa | 0 mm | - | 4 W/m² | - |
| 1777865763 | 10° C | 62% | 1086 hPa | 0 mm | - | 3 W/m² | - |
| 1777865357 | 10° C | 62% | 1086.1 hPa | 0 mm | - | 1 W/m² | - |
| 1777865043 | 10° C | 62% | 1085.9 hPa | 0 mm | - | 1 W/m² | - |
| 1777864803 | 10° C | 62% | 1085.8 hPa | 0 mm | - | 0 W/m² | - |
| 1777864623 | 10° C | 62% | 1086 hPa | 0 mm | - | 0 W/m² | - |
| 1777863903 | 10° C | 61% | 1085.9 hPa | 0 mm | - | 0 W/m² | - |
| 1777863783 | 10° C | 61% | 1086 hPa | 0 mm | - | 0 W/m² | - |
| 1777863737 | 10° C | 61% | 1086.1 hPa | 0 mm | - | 0 W/m² | - |
| 1777862223 | 10° C | 60% | 1086 hPa | 0 mm | - | 0 W/m² | - |
| 1777862103 | 10° C | 61% | 1086.1 hPa | 0 mm | - | 0 W/m² | - |
| 1777861743 | 10° C | 60% | 1086.2 hPa | 0 mm | - | 0 W/m² | - |
| 1777861683 | 10° C | 60% | 1086.3 hPa | 0 mm | - | 0 W/m² | - |
| 1777861503 | 10° C | 60% | 1086.3 hPa | 0 mm | - | 0 W/m² | - |
* Rain latest hour (hover to see other rain measurements)
** Current wind speed in m/s (hover to see current wind gust speed)